Simultaneous Nadir Overpasses (SNOs) Predictions

Prediction of SNOs between NOAA-20 and PACE Satellite Orbit:

Table of predicted SNOs for the next 14.0 days since TLE Epoch: 8/30/2024
Index Date (NOAA-20) Time (NOAA-20) Lat,Lon (NOAA-20) SZA (NOAA-20 ) Date (PACE) Time (PACE) Lat,Lon (PACE) SZA (PACE ) Distance(km) Time Diff (sec)
1 09/01/2024 02:15:06 -79.98, -72.37 105.95 09/01/2024 02:16:02 -79.99, -72.43 105.97 1.36 56
2 09/01/2024 03:05:43 79.75, 97.20 73.63 09/01/2024 03:05:05 79.75, 97.06 73.67 2.95 38
3 09/03/2024 06:41:25 -79.87,-137.90 105.38 09/03/2024 06:41:34 -79.88,-137.96 105.37 1.14 9
4 09/05/2024 10:17:07 80.01, -13.20 75.66 09/05/2024 10:18:03 80.01, -13.14 75.63 1.16 56
5 09/05/2024 11:07:45 -79.80, 156.19 104.73 09/05/2024 11:07:06 -79.80, 156.20 104.71 0.22 39
6 09/07/2024 14:43:26 79.92, -78.86 76.28 09/07/2024 14:43:33 79.91, -78.72 76.25 2.90 7
7 09/09/2024 18:19:06 -80.00, 46.46 102.80 09/09/2024 18:19:58 -79.99, 46.55 102.84 2.04 52
8 09/09/2024 19:09:43 79.77,-144.02 76.80 09/09/2024 19:09:01 79.77,-144.06 76.83 0.92 42



Historial Predications of SNOs between NOAA-20 and PACE
